• In Austria
  • List of Countries
  • For 7 days
  • Water Temperature
  • Satellite Maps
  • Weather Map
  • News
  • Weather Widgets
  • user-avatar
    Login

    Hourly Weather Neuquén

    Today, 25 September, Tuesday

    Time Temperature Precipitation Wind Pressure Humidity
    00:00 +14°C° 0 mm 4 mps 733 mmHg 35%
    01:00 +13°C° 0 mm 4 mps 733 mmHg 37%
    02:00 +12°C° 0 mm 4 mps 733 mmHg 36%
    03:00 +12°C° 0 mm 4 mps 733 mmHg 36%
    04:00 +11°C° 0 mm 4 mps 733 mmHg 36%
    05:00 +12°C° 0 mm 4 mps 734 mmHg 36%
    06:00 +12°C° 0 mm 4 mps 734 mmHg 35%
    07:00 +12°C° 0 mm 4 mps 734 mmHg 35%
    08:00 +14°C° 0 mm 4 mps 734 mmHg 32%
    09:00 +16°C° 0 mm 3 mps 734 mmHg 29%
    10:00 +17°C° 0 mm 3 mps 734 mmHg 26%
    11:00 +18°C° 0 mm 3 mps 733 mmHg 24%
    12:00 +19°C° 0 mm 3 mps 733 mmHg 23%
    13:00 +19°C° 0 mm 4 mps 733 mmHg 21%
    14:00 +20°C° 0 mm 3 mps 732 mmHg 20%
    15:00 +20°C° 0 mm 3 mps 732 mmHg 19%
    16:00 +20°C° 0 mm 3 mps 732 mmHg 18%
    17:00 +19°C° 0 mm 3 mps 732 mmHg 21%
    18:00 +18°C° 0 mm 3 mps 733 mmHg 24%
    19:00 +17°C° 0 mm 3 mps 733 mmHg 27%
    20:00 +17°C° 0 mm 3 mps 734 mmHg 28%
    21:00 +15°C° 0 mm 4 mps 734 mmHg 30%
    22:00 +14°C° 0 mm 4 mps 735 mmHg 32%
    23:00 +14°C° 0 mm 4 mps 735 mmHg 33%

    Tomorrow, 26 September, Wednesday

    Time Temperature Precipitation Wind Pressure Humidity
    00:00 +13°C° 0 mm 4 mps 735 mmHg 34%
    01:00 +13°C° 0 mm 3 mps 735 mmHg 35%
    02:00 +13°C° 0.1 mm 4 mps 736 mmHg 36%
    03:00 +12°C° 0.1 mm 4 mps 736 mmHg 37%
    04:00 +12°C° 0.1 mm 4 mps 736 mmHg 38%
    05:00 +12°C° 0.2 mm 5 mps 737 mmHg 39%
    06:00 +10°C° 0.2 mm 6 mps 737 mmHg 39%
    07:00 +10°C° 0.2 mm 7 mps 738 mmHg 40%
    08:00 +10°C° 0.1 mm 7 mps 738 mmHg 41%
    09:00 +10°C° 0.1 mm 7 mps 738 mmHg 43%
    10:00 +10°C° 0.1 mm 7 mps 739 mmHg 44%
    11:00 +10°C° 0.2 mm 7 mps 738 mmHg 47%
    12:00 +10°C° 0.2 mm 7 mps 738 mmHg 51%
    13:00 +10°C° 0.2 mm 7 mps 738 mmHg 54%
    14:00 +9°C° 0.3 mm 7 mps 737 mmHg 58%
    15:00 +9°C° 0.3 mm 7 mps 737 mmHg 61%
    16:00 +9°C° 0.3 mm 7 mps 737 mmHg 65%
    17:00 +8°C° 0.8 mm 7 mps 737 mmHg 68%
    18:00 +8°C° 0.8 mm 7 mps 737 mmHg 72%
    19:00 +6°C° 0.8 mm 7 mps 738 mmHg 75%
    20:00 +6°C° 1.6 mm 7 mps 738 mmHg 78%
    21:00 +6°C° 1.6 mm 7 mps 738 mmHg 81%
    22:00 +5°C° 1.6 mm 6 mps 738 mmHg 83%
    23:00 +5°C° 1.2 mm 6 mps 738 mmHg 84%

    Day after tomorrow, 27 September, Thursday

    Time Temperature Precipitation Wind Pressure Humidity
    00:00 +5°C° 1.2 mm 6 mps 737 mmHg 85%
    01:00 +5°C° 1.2 mm 6 mps 737 mmHg 86%
    02:00 +5°C° 0.8 mm 6 mps 737 mmHg 86%
    03:00 +5°C° 0.8 mm 7 mps 736 mmHg 86%
    04:00 +5°C° 0.8 mm 7 mps 736 mmHg 87%
    05:00 +5°C° 0.3 mm 7 mps 736 mmHg 86%
    06:00 +5°C° 0.3 mm 8 mps 736 mmHg 85%
    07:00 +5°C° 0.3 mm 8 mps 736 mmHg 84%
    08:00 +5°C° 0.3 mm 7 mps 736 mmHg 83%
    09:00 +6°C° 0.3 mm 7 mps 736 mmHg 82%
    10:00 +6°C° 0.3 mm 7 mps 736 mmHg 81%
    11:00 +7°C° 0.5 mm 6 mps 735 mmHg 80%
    12:00 +8°C° 0.5 mm 6 mps 735 mmHg 80%
    13:00 +8°C° 0.5 mm 5 mps 734 mmHg 79%
    14:00 +9°C° 0.1 mm 5 mps 733 mmHg 79%
    15:00 +9°C° 0.1 mm 5 mps 733 mmHg 79%
    16:00 +9°C° 0.1 mm 5 mps 733 mmHg 78%
    17:00 +9°C° 0.1 mm 5 mps 733 mmHg 80%
    18:00 +9°C° 0.1 mm 5 mps 733 mmHg 82%
    19:00 +9°C° 0.1 mm 5 mps 733 mmHg 85%
    20:00 +9°C° 0.4 mm 5 mps 733 mmHg 86%
    21:00 +9°C° 0.4 mm 6 mps 733 mmHg 87%
    22:00 +9°C° 0.4 mm 6 mps 733 mmHg 88%
    23:00 +9°C° 0.3 mm 6 mps 732 mmHg 88%

    28 September, Friday

    Time Temperature Precipitation Wind Pressure Humidity
    00:00 +9°C° 0.3 mm 5 mps 731 mmHg 89%
    01:00 +9°C° 0.3 mm 5 mps 730 mmHg 89%
    02:00 +9°C° 0 mm 5 mps 729 mmHg 90%
    03:00 +9°C° 0 mm 5 mps 729 mmHg 90%
    04:00 +9°C° 0 mm 5 mps 728 mmHg 91%
    05:00 +9°C° 0 mm 5 mps 728 mmHg 88%
    06:00 +10°C° 0 mm 5 mps 728 mmHg 85%
    07:00 +12°C° 0 mm 5 mps 728 mmHg 83%
    08:00 +14°C° 0 mm 5 mps 728 mmHg 70%
    09:00 +17°C° 0 mm 6 mps 727 mmHg 58%
    10:00 +21°C° 0 mm 6 mps 727 mmHg 46%
    11:00 +22°C° 0 mm 7 mps 726 mmHg 40%
    12:00 +24°C° 0 mm 7 mps 726 mmHg 34%
    13:00 +26°C° 0 mm 7 mps 725 mmHg 29%
    14:00 +26°C° 0 mm 6 mps 724 mmHg 30%
    15:00 +26°C° 0 mm 5 mps 724 mmHg 32%
    16:00 +26°C° 0 mm 4 mps 723 mmHg 34%
    17:00 +23°C° 0.1 mm 4 mps 723 mmHg 41%
    18:00 +22°C° 0.1 mm 3 mps 723 mmHg 48%
    19:00 +21°C° 0.1 mm 3 mps 723 mmHg 56%
    20:00 +20°C° 0.1 mm 3 mps 722 mmHg 55%
    21:00 +20°C° 0.1 mm 3 mps 722 mmHg 53%
    22:00 +20°C° 0.1 mm 3 mps 721 mmHg 52%
    23:00 +19°C° 0.2 mm 3 mps 720 mmHg 55%

    29 September, Saturday

    Time Temperature Precipitation Wind Pressure Humidity
    00:00 +19°C° 0.2 mm 4 mps 720 mmHg 58%
    01:00 +18°C° 0.2 mm 4 mps 719 mmHg 60%
    02:00 +18°C° 0 mm 4 mps 719 mmHg 57%
    03:00 +17°C° 0 mm 5 mps 718 mmHg 54%
    04:00 +17°C° 0 mm 6 mps 717 mmHg 51%
    05:00 +18°C° 0 mm 10 mps 718 mmHg 46%
    06:00 +18°C° 0 mm 13 mps 718 mmHg 40%
    07:00 +19°C° 0 mm 17 mps 718 mmHg 34%
    08:00 +19°C° 0 mm 18 mps 719 mmHg 32%
    09:00 +19°C° 0 mm 19 mps 720 mmHg 31%
    10:00 +19°C° 0 mm 20 mps 720 mmHg 29%
    11:00 +20°C° 0 mm 19 mps 721 mmHg 27%
    12:00 +20°C° 0 mm 18 mps 721 mmHg 25%
    13:00 +20°C° 0 mm 17 mps 721 mmHg 22%
    14:00 +19°C° 0 mm 17 mps 722 mmHg 23%
    15:00 +18°C° 0 mm 16 mps 722 mmHg 24%
    16:00 +18°C° 0 mm 16 mps 722 mmHg 24%
    17:00 +15°C° 0 mm 15 mps 723 mmHg 27%
    18:00 +14°C° 0 mm 14 mps 724 mmHg 29%
    19:00 +12°C° 0 mm 13 mps 725 mmHg 31%
    20:00 +10°C° 0 mm 13 mps 725 mmHg 34%
    21:00 +9°C° 0 mm 13 mps 726 mmHg 37%
    22:00 +8°C° 0 mm 13 mps 726 mmHg 40%
    23:00 +7°C° 0 mm 12 mps 727 mmHg 38%

    30 September, Sunday

    Time Temperature Precipitation Wind Pressure Humidity
    00:00 +5°C° 0 mm 12 mps 728 mmHg 37%
    01:00 +4°C° 0 mm 11 mps 728 mmHg 35%
    02:00 +5°C° 0 mm 10 mps 729 mmHg 36%
    03:00 +5°C° 0 mm 10 mps 730 mmHg 38%
    04:00 +3°C° 0 mm 10 mps 730 mmHg 40%
    05:00 +4°C° 0 mm 11 mps 731 mmHg 38%
    06:00 +4°C° 0 mm 11 mps 731 mmHg 37%
    07:00 +4°C° 0 mm 12 mps 732 mmHg 35%
    08:00 +5°C° 0 mm 12 mps 732 mmHg 31%
    09:00 +7°C° 0 mm 12 mps 732 mmHg 27%
    10:00 +8°C° 0 mm 12 mps 732 mmHg 24%
    11:00 +8°C° 0 mm 11 mps 732 mmHg 22%
    12:00 +9°C° 0 mm 11 mps 732 mmHg 21%
    13:00 +9°C° 0 mm 11 mps 732 mmHg 20%
    14:00 +9°C° 0 mm 10 mps 732 mmHg 21%
    15:00 +9°C° 0 mm 10 mps 732 mmHg 21%
    16:00 +10°C° 0 mm 9 mps 732 mmHg 22%
    17:00 +9°C° 0 mm 8 mps 733 mmHg 24%
    18:00 +8°C° 0 mm 7 mps 734 mmHg 27%
    19:00 +8°C° 0 mm 6 mps 735 mmHg 29%
    20:00 +7°C° 0 mm 6 mps 735 mmHg 32%
    21:00 +7°C° 0 mm 6 mps 736 mmHg 35%
    22:00 +5°C° 0 mm 6 mps 736 mmHg 37%
    23:00 +4°C° 0 mm 6 mps 736 mmHg 39%
    Show more